User: anonymous   Login
Location: Unspecified
(0.0000°N, 0.0000°E)
Time: 18:08:57
(UTC+00:00)
Language:

STARLINK-5151 - Orbit

View from above orbital plane
View from above orbital plane
View from above satellite
View from above satellite

Ground track
Ground track

The orbit is defined by the following mean orbital elements,

1 54066U          26145.31857977 +.00000000 +00000-0 -10825-2 0 00008
2 54066  53.2190   0.0325 0001130  96.0251 264.0870 15.08107743    04
Epoch (UTC): 25 May 2026 07:38:45
Eccentricity: 0.0001130
inclination: 53.2190°
perigee height: 541 km
apogee height: 543 km
right ascension of ascending node: 0.0325°
argument of perigee: 96.0251°
revolutions per day: 15.08107743
mean anomaly at epoch: 264.0870°

The dashed part of the orbit path shows where the satellite is in the earth's shadow,  

DLR